Weather History for Kemmerer, WY

Change the Weather History Date:

Wednesday, August 7, 2013

  Actual Average Record
Temperature  
Mean Temperature 66 °F -  
Max Temperature 84 °F 82 °F 91 °F (1983)
Min Temperature 49 °F 45 °F 32 °F (1950)
Cooling Degree Days 2    
Growing Degree Days 16 (Base 50)    
Moisture  
Dew Point 22 °F    
Average Humidity 22    
Maximum Humidity 44    
Minimum Humidity 6    
Precipitation  
Precipitation 0.00 in - - ()
Sea Level Pressure  
Sea Level Pressure 30.21 in    
Wind  
Wind Speed 9 mph (NW)    
Max Wind Speed 22 mph    
Max Gust Speed 29 mph    
Visibility 10 miles    
Events      
Averages and records for this station are not official NWS values.
T = Trace of Precipitation, MM = Missing Value Source: NWS Daily Summary

Daily Weather History Graph

Daily Weather History Graph

Search for Another Location

Airport:

Trip Planner

Search our weather history database for the weather conditions in past years. The results will help you decide how hot, cold, wet, or windy it might be!

Date:

Astronomy

Aug. 07, 2013 Rise Set
Actual Time 6:22 AM MDT 8:32 PM MDT
Civil Twilight 5:51 AM MDT 9:03 PM MDT
Nautical Twilight 5:13 AM MDT 9:41 PM MDT
Astronomical Twilight 4:32 AM MDT 10:22 PM MDT
Moon 7:16 AM MDT (8/7) 8:39 PM MDT (8/7)
Length of Visible Light 15h 11m
Length of Day
14h 10m
New Moon, 1% of the Moon is Illuminated
Aug 7
New Moon
Aug 14
First Quarter
Aug 20
Full
Aug 28
Last Quarter
Sep 5
New

Hourly Weather History & Observations

Time (MDT) Temp. Dew Point Humidity Pressure Visibility Wind Dir Wind Speed Gust Speed Precip Events Conditions
12:15 AM 59.9 °F 21.2 °F 22% 30.24 in 10.0 mi North 9.2 mph - N/A   Clear
12:35 AM 59.4 °F 21.0 °F 23% 30.24 in 10.0 mi NNW 9.2 mph - N/A   Clear
12:55 AM 59.0 °F 20.5 °F 23% 30.24 in 10.0 mi NNW 10.4 mph - N/A   Clear
1:15 AM 58.5 °F 20.5 °F 23% 30.24 in 10.0 mi North 9.2 mph - N/A   Clear
1:35 AM 57.0 °F 21.2 °F 25% 30.24 in 10.0 mi North 10.4 mph - N/A   Clear
1:55 AM 56.3 °F 21.6 °F 26% 30.24 in 10.0 mi NNW 5.8 mph - N/A   Clear
2:15 AM 55.6 °F 21.9 °F 27% 30.23 in 10.0 mi North 8.1 mph - N/A   Clear
2:35 AM 52.9 °F 25.2 °F 34% 30.24 in 10.0 mi Calm Calm - N/A   Clear
2:55 AM 50.5 °F 27.1 °F 40% 30.24 in 10.0 mi North 6.9 mph - N/A   Clear
3:15 AM 51.4 °F 26.2 °F 38% 30.24 in 10.0 mi Calm Calm - N/A   Clear
3:35 AM 55.8 °F 22.8 °F 28% 30.24 in 10.0 mi Calm Calm - N/A   Clear
3:55 AM 55.2 °F 22.1 °F 28% 30.24 in 10.0 mi Calm Calm - N/A   Clear
4:15 AM 53.2 °F 22.6 °F 30% 30.24 in 10.0 mi North 10.4 mph - N/A   Clear
4:35 AM 50.4 °F 22.1 °F 33% 30.24 in 10.0 mi North 10.4 mph - N/A   Clear
4:55 AM 51.4 °F 22.3 °F 32% 30.24 in 10.0 mi North 10.4 mph - N/A   Clear
5:15 AM 52.0 °F 23.4 °F 33% 30.23 in 10.0 mi North 13.8 mph - N/A   Clear
5:35 AM 51.1 °F 26.1 °F 38% 30.24 in 10.0 mi North 12.7 mph - N/A   Clear
5:55 AM 50.4 °F 27.5 °F 41% 30.24 in 10.0 mi NNW 13.8 mph 18.4 mph N/A   Clear
6:15 AM 49.3 °F 28.0 °F 44% 30.23 in 10.0 mi North 13.8 mph - N/A   Clear
6:35 AM 49.1 °F 28.2 °F 44% 30.22 in 10.0 mi North 11.5 mph - N/A   Clear
6:55 AM 50.4 °F 28.2 °F 42% 30.23 in 10.0 mi NNW 10.4 mph - N/A   Clear
7:15 AM 52.3 °F 28.2 °F 39% 30.24 in 10.0 mi NNW 11.5 mph - N/A   Clear
7:35 AM 53.4 °F 28.0 °F 38% 30.24 in 10.0 mi NNW 10.4 mph - N/A   Clear
7:55 AM 54.3 °F 28.8 °F 38% 30.24 in 10.0 mi North 6.9 mph - N/A   Clear
8:15 AM 56.1 °F 29.1 °F 36% 30.24 in 10.0 mi NNW 6.9 mph - N/A   Clear
8:35 AM 60.1 °F 29.7 °F 32% 30.24 in 10.0 mi North 4.6 mph - N/A   Clear
8:55 AM 62.4 °F 30.6 °F 30% 30.25 in 10.0 mi North 3.5 mph - N/A   Clear
9:15 AM 64.4 °F 31.1 °F 29% 30.24 in 10.0 mi Calm Calm - N/A   Clear
9:35 AM 66.9 °F 32.0 °F 27% 30.25 in 10.0 mi Calm Calm - N/A   Clear
9:55 AM 70.0 °F 32.0 °F 25% 30.25 in 10.0 mi South 3.5 mph - N/A   Clear
10:15 AM 71.8 °F 30.9 °F 22% 30.24 in 10.0 mi Calm Calm - N/A   Clear
10:35 AM 72.7 °F 31.3 °F 22% 30.24 in 10.0 mi SW 4.6 mph - N/A   Clear
10:55 AM 75.0 °F 28.9 °F 18% 30.24 in 10.0 mi South 6.9 mph - N/A   Clear
11:15 AM 76.3 °F 27.1 °F 16% 30.24 in 10.0 mi SSW 4.6 mph - N/A   Clear
11:35 AM 78.3 °F 21.4 °F 12% 30.23 in 10.0 mi WSW 15.0 mph - N/A   Clear
11:55 AM 79.7 °F 12.0 °F 8% 30.22 in 10.0 mi West 12.7 mph 21.9 mph N/A   Clear
12:15 PM 80.6 °F 10.8 °F 7% 30.22 in 10.0 mi West 12.7 mph 25.3 mph N/A   Clear
12:35 PM - - N/A% 30.22 in 10.0 mi West 12.7 mph 23.0 mph N/A   Clear
12:55 PM 82.0 °F 7.3 °F 6% 30.21 in 10.0 mi WNW 9.2 mph 23.0 mph N/A   Clear
1:15 PM 81.3 °F 7.3 °F 6% 30.21 in 10.0 mi WNW 15.0 mph 23.0 mph N/A   Clear
1:35 PM 81.5 °F 8.1 °F 6% 30.21 in 10.0 mi WNW 21.9 mph 27.6 mph N/A   Clear
1:55 PM 81.9 °F 10.9 °F 7% 30.20 in 10.0 mi NW 16.1 mph 23.0 mph N/A   Clear
2:15 PM 82.6 °F 11.8 °F 7% 30.19 in 10.0 mi West 15.0 mph 21.9 mph N/A   Clear
2:35 PM 83.1 °F 11.8 °F 7% 30.19 in 10.0 mi NNW 9.2 mph 18.4 mph N/A   Clear
2:55 PM - - N/A% 30.18 in 10.0 mi NW 17.3 mph 25.3 mph N/A   Clear
3:15 PM - - N/A% 30.18 in 10.0 mi NNW 20.7 mph 28.8 mph N/A   Clear
3:35 PM 84.2 °F 10.6 °F 6% 30.17 in 10.0 mi NNW 16.1 mph 24.2 mph N/A   Clear
3:55 PM - - N/A% 30.17 in 10.0 mi NNW 18.4 mph 26.5 mph N/A   Clear
4:15 PM - - N/A% 30.16 in 10.0 mi NW 13.8 mph 24.2 mph N/A   Clear
4:35 PM - - N/A% 30.16 in 10.0 mi NW 15.0 mph 25.3 mph N/A   Clear
4:55 PM - - N/A% 30.16 in 10.0 mi WNW 15.0 mph 27.6 mph N/A   Clear
5:15 PM 81.3 °F 16.3 °F 9% 30.16 in 10.0 mi NW 15.0 mph 20.7 mph N/A   Clear
5:35 PM 81.0 °F 16.2 °F 9% 30.16 in 10.0 mi WNW 13.8 mph 21.9 mph N/A   Clear
5:55 PM 80.8 °F 16.3 °F 9% 30.16 in 10.0 mi NW 13.8 mph 23.0 mph N/A   Clear
6:15 PM 81.3 °F 18.5 °F 10% 30.16 in 10.0 mi NW 15.0 mph 25.3 mph N/A   Clear
6:35 PM 80.2 °F 18.9 °F 10% 30.16 in 10.0 mi NW 16.1 mph 21.9 mph N/A   Clear
6:55 PM 79.0 °F 18.9 °F 11% 30.16 in 10.0 mi NW 16.1 mph 20.7 mph N/A   Clear
7:15 PM 78.6 °F 19.6 °F 11% 30.15 in 10.0 mi WNW 12.7 mph - N/A   Clear
7:35 PM 78.1 °F 20.7 °F 12% 30.15 in 10.0 mi NW 13.8 mph 18.4 mph N/A   Clear
7:55 PM 77.4 °F 21.4 °F 12% 30.16 in 10.0 mi NW 11.5 mph - N/A   Clear
8:15 PM 75.0 °F 21.7 °F 14% 30.16 in 10.0 mi WNW 8.1 mph - N/A   Clear
8:35 PM 72.5 °F 21.0 °F 14% 30.17 in 10.0 mi WNW 9.2 mph - N/A   Clear
8:55 PM 70.7 °F 20.7 °F 15% 30.17 in 10.0 mi NW 8.1 mph - N/A   Clear
9:15 PM 68.7 °F 22.1 °F 17% 30.17 in 10.0 mi NW 10.4 mph - N/A   Clear
9:35 PM 67.6 °F 22.1 °F 18% 30.18 in 10.0 mi NW 9.2 mph - N/A   Clear
9:55 PM 66.2 °F 21.7 °F 18% 30.19 in 10.0 mi SE 4.6 mph - N/A   Clear
10:15 PM 66.0 °F 22.1 °F 19% 30.20 in 10.0 mi Calm Calm - N/A   Clear
10:35 PM 66.4 °F 19.9 °F 17% 30.20 in 10.0 mi West 3.5 mph - N/A   Clear
10:55 PM 64.8 °F 21.7 °F 19% 30.20 in 10.0 mi West 8.1 mph - N/A   Clear
11:15 PM 63.9 °F 25.9 °F 24% 30.20 in 10.0 mi NNW 3.5 mph - N/A   Clear
11:35 PM 62.6 °F 27.1 °F 26% 30.20 in 10.0 mi WNW 5.8 mph - N/A   Clear
11:55 PM 62.2 °F 28.9 °F 28% 30.20 in 10.0 mi WNW 3.5 mph - N/A   Clear